Home   Weather   Mali i Gjalicës   Past weeks
Flag for Albania

Past Weather in Mali i Gjalicës, Albania — Yesterday and Last 2 Weeks

Now
70 °F

Sunny.


Feels Like: 70 °F
Forecast: 83 / 56 °F
Wind: 1 mph from Southeast

Location: Tirana Airport

Current Time: Oct 21, 2019 at 10:47:23 am

Latest Report: Oct 21, 2019 at 10:20 am


Visibility: 10 mi

Pressure: 30.21 "Hg

Humidity: 69%

Dew Point: 59 °F

Location of Mali i GjalicësLocation

Past Weather in Mali i Gjalicës — Graph

°F

Mali i Gjalicës Temperature Yesterday

Maximum temperature yesterday: 81 °F (at 1:20 pm)
Minimum temperature yesterday: 54 °F (at 2:50 am)
Average temperature yesterday: 64 °F

High & Low Weather Summary for the Past Weeks

 TemperatureHumidityPressure
High86 °F (Oct 10, 12:50 pm)100% (Oct 7, 5:20 am)30.21 "Hg (Oct 7, 5:20 am)
Low48 °F (Oct 7, 6:50 am)34% (Oct 7, 1:50 pm)29.71 "Hg (Oct 7, 1:20 pm)
Average65 °F78%30.08 "Hg
* Reported Oct 6 9:20 am — Oct 21 9:20 am, Mali i Gjalicës. Weather by CustomWeather, © 2019

Note: Actual official high and low records may vary slightly from our data, if they occured in-between our weather recording intervals... More about our weather records

Advertising

Mali i Gjalicës Weather History for the Previous 24 Hours

Scroll right to see more
 ConditionsComfort  
Time TempWeatherWind HumidityBarometerVisibility
9:20 am
Mon, Oct 21
63 °FSunny.2 mph83%30.21 "Hg10 mi
8:20 am55 °FClear.1 mph94%30.21 "Hg4 mi
7:50 am54 °FClear.2 mph94%30.18 "Hg4 mi
7:20 am52 °FFog.1 mph100%30.18 "Hg4 mi
6:50 am52 °FFog.2 mph94%30.18 "Hg4 mi
6:20 am54 °FClear.2 mph94%30.18 "Hg4 mi
5:50 am54 °FClear.2 mph100%30.18 "Hg4 mi
4:50 am54 °FClear.3 mph94%30.18 "Hg4 mi
4:20 am54 °FClear.3 mph94%30.18 "Hg4 mi
3:50 am54 °FClear.2 mph94%30.18 "Hg4 mi
3:20 am54 °FClear.2 mph94%30.18 "Hg4 mi
2:50 am55 °FClear.3 mph94%30.18 "Hg4 mi
2:20 am55 °FClear.3 mph94%30.18 "Hg4 mi
1:50 am55 °FClear.3 mph94%30.18 "Hg4 mi
1:20 am57 °FClear.3 mph94%30.18 "Hg4 mi
12:50 am57 °FClear.3 mph94%30.18 "Hg4 mi
12:20 am57 °FClear.3 mph94%30.18 "Hg10 mi
11:50 pm
Sun, Oct 20
57 °FClear.3 mph88%30.18 "Hg10 mi
11:20 pm57 °FClear.3 mph88%30.18 "Hg10 mi
10:50 pm57 °FClear.3 mph94%30.18 "Hg10 mi
10:20 pm57 °FClear.3 mph94%30.18 "Hg10 mi
9:50 pm57 °FClear.3 mph94%30.18 "Hg10 mi
8:50 pm59 °FClear.2 mph94%30.15 "Hg10 mi
8:20 pm61 °FClear.3 mph88%30.15 "Hg10 mi
7:50 pm61 °FClear.3 mph83%30.15 "Hg10 mi
7:20 pm63 °FClear.2 mph83%30.15 "Hg10 mi
6:50 pm64 °FClear.1 mph78%30.15 "Hg10 mi
6:20 pm66 °FClear.3 mph73%30.15 "Hg10 mi
5:50 pm70 °FSunny.3 mph64%30.12 "Hg10 mi
5:20 pm72 °FSunny.6 mph61%30.12 "Hg10 mi
4:50 pm73 °FSunny.7 mph57%30.12 "Hg10 mi
4:20 pm73 °FSunny.8 mph57%30.12 "Hg10 mi
3:50 pm77 °FSunny.8 mph54%30.12 "Hg10 mi
3:20 pm77 °FPassing clouds.8 mph51%30.12 "HgN/A
2:50 pm79 °FPassing clouds.3 mph48%30.12 "HgN/A
2:20 pm81 °FSunny.2 mph42%30.12 "Hg10 mi
1:50 pm79 °FPassing clouds.3 mph48%30.15 "HgN/A
1:20 pm81 °FSunny.1 mph45%30.15 "Hg10 mi
12:50 pm79 °FSunny.2 mph48%30.15 "Hg10 mi
12:20 pm77 °FSunny.1 mph47%30.15 "Hg10 mi
11:50 am75 °FSunny.1 mph50%30.18 "Hg10 mi
11:20 am73 °FSunny.1 mph50%30.18 "Hg10 mi
10:50 am72 °FSunny.2 mph61%30.18 "Hg10 mi
10:20 am70 °FSunny.2 mph64%30.18 "Hg10 mi
Weather by CustomWeather, © 2019

See weather overview